Voltar ao catálogo

ZHUHAI-1 03B

AtivoCiênciaPO
NORAD 44536·PAYLOAD·🇨🇳 China

Lançado Sep 19, 2019 de Jiuquan Satellite Launch Center

Loading…

Próximas Passagens (próximas 24 horas)

TLE

AtualizadoSource: Space-Track

Época: Sep 14, 2026, 14:34 UTC

1 44536U 19060C   26257.60707921  .00027833  00000-0  35855-3 0  9994
2 44536  97.5621  60.6001 0007188 353.2961   6.8197 15.58977999390237

Acompanhe ZHUHAI-1 03B em tempo real com AllMySat

Download on the App Store